Вернуться в каталог

BREEZE-M R/B

АктивенHEO
NORAD 28447·ROCKET BODY·🇷🇺 Russia

Запущен Oct 14, 2004 с Baikonur Cosmodrome

Loading…

Ближайшие Пролёты (ближайшие 24 часа)

TLE

УстаревающийSource: Space-Track

Эпоха: Aug 29, 2026, 03:11 UTC

1 28447U 04041B   26241.13283330 -.00000120  00000-0  00000+0 0  9995
2 28447  16.5530 224.1070 5129283 128.7056 321.9878  1.86976322149389

Отслеживайте BREEZE-M R/B в реальном времени с AllMySat

Download on the App Store